SCP
0 0 0 0 0 0 -0 -0 -0 -0 -0 -0 0 0 -0 -0 -0 -0 -0 0 0 0 0 -0 0 0 -0 -0 -0 -0 -0 -0 -0 -0 -0 -0 -0 -0 -0 -0 -0 -0 -0 -0 -0 -0 -0 -0 -0
0 0 0 0 0 -0 -0 -0 -0 -0 -0 -0 -0 0 -0 -0 -0 0 0 0 0 0 0 0 0 0 0 0 0 -0 -0 -0 -0 -0 -0 -0 -0 -0 -0 -0 -0 -0 -0 -0 -0 -0 -0 -0 -0
0 0 0 0 0 0 0 -0 -0 -0 -0 -0 -0 0 0 -0 -0 -0 0 0 0 -0 0 0 0 0 0 0 -0 0 0 0 -0 -0 -0 -0 -0 -0 -0 -0 -0 -0 -0 -0 -0 -0 -0 -0 -0
0 0 0 0 0 0 0 -0 0 -0 0 0 0 -0 0 0 0 -0 0 0 0 -0 0 0 0 0 0 -0 -0 -0 -0 0 0 -0 -0 -0 -0 -0 -0 -0 -0 -0 -0 -0 -0 -0 -0 -0 -0
0 0 0 0 0 0 0 0 -0 -0 -0 -0 0 -0 -0 0 0 0 0 0 0 0 0 0 0 0 0 0 -0 -0 -0 -0 0 0 -0 0 -0 0 -0 -0 -0 -0 -0 -0 -0 -0 -0 -0 -0
0 0 0 0 0 -0 0 0 0 -0 -0 0 0 -0 -0 -0 -0 0 0 0 0 -0 0 0 0 0 0 0 0 -0 0 -0 -0 -0 -0 -0 -0 -0 0 -0 -0 -0 -0 -0 -0 -0 -0 -0 0
0 0 0 0 0 0 0 0 0 0 0 -0 0 -0 -0 -0 0 0 0 0 0 -0 0 0 0 0 0 0 0 0 0 0 -0 -0 -0 -0 -0 -0 -0 -0 -0 -0 -0 -0 0 0 0 0 0
0 0 0 0 0 0 0 0 0 0 0 0 0 0 -0 0 0 0 0 0 0 0 0 0 0 0 0 0 0 0 0 0 0 -0 -0 -0 -0 -0 -0 0 -0 -0 -0 -0 0 0 0 0 0
0 0 0 0 0 0 0 0 0 0 0 0 0 0 0 -0 0 0 0 0 0 0 0 0 0 0 0 0 0 0 0 0 0 -0 -0 0 0 0 0 -0 -0 -0 -0 -0 0 0 0 0 0
0 0 0 0 0 0 0 0 0 0 0 0 0 0 0 -0 0 0 0 0 0 -0 -0 -0 0 0 0 0 0 0 0 0 0 0 0 0 0 0 0 0 0 0 -0 0 0 0 0 0 0
0 0 0 0 0 0 0 0 0 0 0 0 0 0 0 0 -0 -0 -0 -0 -0 -0 -0 -0 -0 0 0 0 0 0 0 0 0 0 0 0 0 0 0 0 0 0 0 0 0 0 0 0 0
0 0 0 0 0 0 0 0 0 0 0 0 0 0 0 0 0 -0 -0 -0 -0 -0 -0 -0 -0 0 0 0 -0 -0 -0 0 0 0 0 0 0 0 0 0 0 0 0 0 0 0 0 0 0
0 0 0 0 0 0 0 0 0 0 0 0 0 0 0 0 0 0 0 0 -0 -0 -0 -0 -0 -0 0 0 0 -0 -0 -0 0 0 0 0 0 0 0 0 0 0 0 0 0 0 0 0 0
0 0 0 0 0 0 0 0 0 0 0 0 0 0 0 0 0 0 0 0 0 -0 -0 -0 -0 -0 -0 0 0 0 0 -0 -0 0 0 0 0 0 0 0 0 0 0 0 0 0 0 0 0
0 0 0 0 0 0 0 0 0 0 0 0 0 0 0 0 0 0 0 0 0 0 0 0 0 -0 -0 -0 0 0 0 0 0 0 0 0 0 0 0 0 0 0 0 0 0 0 0 0 0
0 0 0 0 0 0 0 0 0 0 0 0 0 0 0 0 0 0 0 0 0 0 0 0 0 0 0 0 0 0 0 0 0 0 0 0 0 0 0 0 0 0 0 0 0 0 0 0 0
0 0 0 0 0 0 0 0 0 0 0 0 0 0 0 0 0 0 0 0 0 0 0 0 0 0 0 0 0 0 0 0 0 0 0 0 0 0 0 0 0 0 0 0 0 0 0 0 0
0 0 0 0 0 0 0 0 0 0 0 0 0 0 0 0 0 0 0 0 0 0 0 0 0 0 0 0 0 0 0 0 0 0 0 0 0 0 0 0 0 0 0 0 0 0 0 0 0
0 0 0 0 0 0 0 0 0 0 0 0 0 0 0 0 0 0 0 0 0 0 0 0 0 0 0 0 0 0 0 0 0 0 0 0 0 0 0 0 0 0 0 0 0 0 0 0 0
0 0 0 0 0 0 0 0 0 0 0 0 0 0 0 0 0 0 0 0 0 0 0 0 0 0 0 0 0 0 0 0 0 0 0 0 0 0 0 0 0 0 0 0 0 0 0 0 0
0 0 0 0 0 0 0 0 0 0 0 0 0 0 0 0 0 0 0 0 0 0 0 0 0 0 0 0 0 0 0 0 0 0 0 0 0 0 0 0 0 0 0 0 0 0 0 0 0
0 0 0 0 0 0 0 0 0 0 0 0 0 0 0 0 0 0 0 0 0 0 0 0 0 0 0 0 0 0 0 0 0 0 0 0 0 0 0 0 0 0 0 0 0 0 0 0 0
0 0 0 0 0 0 0 0 0 0 0 0 0 0 0 0 0 0 0 0 0 0 0 0 0 0 0 0 0 0 0 0 0 0 0 0 0 0 0 0 0 0 0 0 0 0 0 0 0
0 0 0 0 0 0 0 0 0 0 0 0 0 0 0 0 0 0 0 0 0 0 0 0 0 0 0 0 0 0 0 0 0 0 0 0 0 0 0 0 0 0 0 0 0 0 0 0 0
0 0 0 0 0 0 0 0 0 0 0 0 0 0 0 0 0 0 0 0 0 0 0 0 0 0 0 0 0 0 0 0 0 0 0 0 0 0 0 0 0 0 0 0 0 0 0 0 0
0 0 0 0 0 0 0 0 0 0 0 0 0 0 0 0 0 0 0 0 0 0 0 0 0 0 0 0 0 0 0 0 0 0 0 0 0 0 0 0 0 0 0 0 0 0 0 0 0
0 0 0 0 0 0 0 0 0 0 0 0 0 0 0 0 0 0 0 0 0 0 0 0 0 0 0 0 0 0 0 0 0 0 0 0 0 0 0 0 0 0 0 0 0 0 0 0 0
0 0 0 0 0 0 0 0 0 0 0 0 0 0 0 0 0 0 0 0 0 0 0 0 0 0 0 0 0 0 0 0 0 0 0 0 0 0 0 0 0 0 0 0 0 0 0 0 0
0 0 0 0 0 0 0 0 0 0 0 0 0 0 0 0 0 0 0 0 0 0 0 0 0 0 0 0 0 0 0 0 0 0 0 0 0 0 0 0 0 0 0 0 0 0 0 0 0
0 0 0 0 0 0 0 0 0 0 0 0 0 0 0 0 0 0 0 0 0 0 0 0 0 0 0 0 0 0 0 0 0 0 0 0 0 0 0 0 0 0 0 0 0 0 0 0 0
Wind_Speed_500mb
1 5 10 10 3 6 7 6 14 13 13 14 22 21 19 35 12 13 36 28 32 34 31 25 21 21 22 25 29 23 16 22 28 29 29 30 30 35 28 26 29 30 29 27 27 27 30 29 28
4 2 6 12 5 9 7 17 10 11 33 21 15 4 19 18 18 41 37 33 34 34 29 26 24 22 22 23 25 24 20 26 25 29 31 30 34 35 26 26 32 30 28 25 25 24 22 22 22
5 4 5 5 8 9 10 15 16 30 24 16 11 11 14 13 30 33 28 40 33 30 29 28 25 23 23 23 23 22 24 25 23 29 31 32 31 28 25 27 28 28 27 27 25 23 21 19 20
5 1 9 6 17 5 14 13 41 24 10 3 11 20 17 25 22 19 43 41 33 31 29 27 25 23 23 23 22 23 27 27 21 25 28 29 29 26 23 25 26 25 25 24 24 23 22 23 24
11 8 8 11 24 12 8 9 40 16 20 12 7 15 20 21 24 28 45 39 35 31 28 28 25 24 22 21 21 22 25 27 18 18 23 26 27 25 22 21 22 23 22 22 23 24 25 26 29
9 12 7 13 21 17 6 10 25 21 20 20 2 25 16 16 29 43 44 38 33 31 31 29 26 23 22 21 20 20 22 25 18 16 19 20 23 22 19 19 18 18 19 19 21 22 25 27 29
5 6 14 17 10 11 10 11 12 17 14 14 2 10 23 27 31 41 44 36 33 27 31 32 28 26 23 21 19 19 19 21 18 15 15 15 17 18 17 13 13 15 14 16 18 21 22 24 24
8 6 17 16 11 9 18 20 16 13 13 19 10 5 22 36 37 40 44 37 33 26 26 31 29 26 22 20 19 17 16 17 16 13 11 10 11 13 13 11 8 11 12 14 16 18 20 19 18
5 5 16 17 9 13 36 13 5 11 17 10 8 21 30 39 42 42 45 40 36 30 26 30 30 28 25 21 19 18 16 15 15 12 9 5 7 7 8 6 4 7 8 10 12 14 14 12 12
6 3 14 12 1 17 31 26 20 7 17 13 14 26 30 31 42 45 49 46 44 39 32 30 33 30 28 27 23 20 17 15 13 11 10 8 4 3 7 3 1 3 6 8 9 9 9 7 10
10 7 4 15 19 36 30 15 27 15 13 27 35 33 33 36 41 43 44 44 46 39 38 36 36 36 32 29 27 24 21 18 16 14 14 13 13 6 2 3 3 4 6 7 7 6 3 6 4
5 11 18 6 11 21 27 19 9 19 11 16 21 29 35 38 39 40 39 40 40 39 40 40 39 40 36 33 27 27 24 23 20 17 16 16 13 9 6 2 3 6 7 8 8 5 2 3 3
6 7 9 11 14 13 18 15 6 22 17 17 23 29 28 33 35 35 35 38 41 47 44 45 43 46 44 42 35 32 27 25 23 22 21 18 16 11 10 7 4 5 8 7 8 6 6 5 4
7 13 16 11 11 8 7 9 3 20 28 19 22 32 26 28 34 34 35 38 41 36 46 51 47 38 46 47 43 39 35 31 26 27 25 23 21 18 16 14 11 8 9 10 10 8 8 6 6
16 9 8 8 10 5 1 6 13 16 23 21 21 23 27 30 31 35 37 38 40 41 42 44 41 39 41 45 46 44 42 39 33 29 29 28 29 26 23 21 19 15 12 12 12 12 11 10 9
14 11 8 8 12 2 8 7 26 28 22 19 18 18 31 34 39 36 35 36 36 39 40 44 45 47 47 40 43 44 44 42 42 39 35 33 33 33 30 28 25 24 20 17 16 13 13 14 16
11 10 13 4 9 9 9 6 10 12 12 17 26 28 26 30 32 39 41 38 39 40 40 43 47 47 44 40 41 42 44 44 41 39 40 35 31 34 36 33 31 31 30 27 25 22 21 22 26
15 14 16 12 13 6 8 15 6 11 15 18 20 27 32 34 33 33 38 42 40 37 39 40 46 47 42 42 44 43 45 45 42 42 38 39 38 33 32 38 37 39 37 35 34 33 33 33 37
17 18 11 11 3 7 13 14 18 26 25 25 26 28 29 36 26 27 29 35 45 45 46 46 48 50 48 48 51 52 52 51 49 48 45 41 38 39 40 39 39 43 44 40 40 42 43 45 46
8 22 11 11 10 4 8 20 17 21 24 33 33 30 30 29 29 37 33 35 35 38 45 48 51 52 55 54 48 51 52 52 50 49 50 49 44 43 44 43 43 45 46 40 41 45 47 49 51
6 8 10 8 9 4 5 13 15 19 46 45 45 45 37 33 39 32 29 34 36 40 44 49 55 55 52 55 53 44 46 48 50 53 53 53 47 45 46 45 43 44 48 44 51 44 47 52 55
5 4 18 19 13 7 7 9 8 14 14 15 36 44 42 26 33 34 33 38 38 39 45 46 52 61 60 54 55 54 51 54 54 48 47 48 47 45 46 45 46 45 46 48 47 48 45 48 52
5 12 12 6 4 3 6 2 11 6 10 15 28 35 29 32 32 33 32 35 30 30 35 37 38 38 46 60 58 55 49 45 42 38 37 37 39 38 40 42 42 45 46 44 45 40 51 49 54
18 15 12 4 7 2 13 12 9 9 11 3 20 26 24 22 26 26 21 18 17 16 17 20 21 25 33 42 56 51 43 42 34 30 32 32 30 30 29 30 35 36 40 38 41 39 47 44 45
8 14 4 2 1 10 13 7 18 5 2 8 21 26 22 22 20 18 17 16 13 12 11 10 11 14 21 29 40 51 46 30 28 29 27 30 29 28 23 24 25 29 32 36 38 43 40 43 49
12 11 10 13 9 6 8 12 12 4 16 28 30 30 24 27 27 24 20 16 15 15 14 11 8 7 10 19 31 40 43 41 24 25 32 30 29 27 26 25 31 32 35 38 39 42 44 46 44
10 9 6 13 5 7 10 12 11 9 8 12 22 26 26 24 26 22 19 18 16 15 13 12 10 10 12 15 20 27 30 33 21 18 21 26 31 29 32 30 31 32 34 36 37 39 38 40 41
4 9 8 3 8 6 10 8 10 13 18 16 20 27 31 28 23 20 19 16 16 14 14 13 12 11 9 9 11 13 16 19 22 20 20 21 22 24 25 26 27 28 27 26 28 30 34 38 41
4 6 6 8 9 10 3 11 5 2 16 22 28 35 37 30 26 24 22 20 17 15 13 13 13 11 10 9 10 12 15 17 17 16 16 15 15 12 11 12 14 17 20 26 29 33 37 40 42
4 7 10 8 9 3 8 11 1 5 6 36 40 40 32 30 28 26 24 22 21 18 16 13 14 15 17 18 18 18 18 17 16 15 12 9 6 5 8 10 14 17 20 24 27 30 33 37 42
Wind_Direction_500mb
130 35 28 326 276 221 125 107 103 69 100 63 74 40 76 54 28 113 135 153 167 161 154 144 129 119 115 112 112 103 88 81 91 88 92 88 86 85 89 79 90 93 96 101 103 108 109 104 100
250 111 7 295 243 231 126 114 129 131 100 95 93 130 81 74 75 130 131 155 160 155 153 143 128 118 115 114 116 118 94 87 81 86 84 86 89 94 87 78 85 92 96 102 104 108 110 107 107
209 141 284 211 246 290 131 137 127 94 116 140 108 39 38 87 116 135 149 152 160 154 156 144 131 124 120 115 114 116 103 93 91 84 77 77 82 87 87 85 87 84 87 92 99 104 107 106 106
119 278 277 284 257 40 67 159 111 115 87 18 99 91 89 95 120 170 145 150 151 142 151 146 135 127 122 119 119 114 115 107 98 79 75 76 78 81 81 80 84 86 87 91 94 98 98 99 104
208 237 233 223 265 84 54 112 126 148 139 160 234 120 104 131 157 153 148 151 152 166 158 154 141 133 127 123 120 112 115 117 116 83 76 70 73 74 79 76 91 85 86 92 98 100 101 102 105
249 252 206 231 244 87 79 75 139 172 146 106 175 113 104 154 146 152 151 154 155 176 164 161 150 141 136 130 124 118 118 121 124 94 82 73 71 70 73 76 81 77 80 90 97 100 103 106 108
267 258 241 230 172 114 132 166 183 172 125 157 283 105 133 140 158 157 151 157 157 187 174 170 162 155 149 144 137 131 128 132 128 114 97 82 74 74 71 83 79 77 89 91 96 100 103 109 108
257 245 257 250 146 163 131 171 197 177 116 118 163 138 157 159 160 157 155 165 167 188 184 179 173 168 165 159 152 147 141 140 145 129 117 98 79 76 74 85 82 96 93 92 97 100 106 106 105
239 291 226 253 168 134 145 140 150 91 103 110 136 92 144 164 155 157 161 170 176 183 203 187 186 181 179 176 174 169 165 160 162 153 142 113 113 74 68 68 70 86 104 105 104 101 102 101 102
211 259 229 223 290 132 163 151 153 137 133 148 151 126 156 169 162 166 169 177 182 185 203 216 191 185 192 190 189 189 186 183 185 180 168 133 122 81 59 12 227 134 127 135 126 114 106 105 101
206 248 275 54 79 140 162 191 156 195 177 190 180 158 174 168 170 177 179 187 188 196 195 217 199 195 195 207 193 204 202 204 209 200 195 173 206 223 300 304 224 196 173 167 158 150 145 95 124
272 252 348 83 110 144 154 139 148 220 129 99 161 186 174 173 180 184 185 191 195 200 197 218 222 200 204 208 211 216 208 216 221 225 214 207 228 221 270 306 225 193 210 182 191 205 125 139 126
222 102 41 106 131 118 149 154 197 197 160 153 144 170 181 183 191 192 199 199 207 204 202 219 231 214 210 212 215 210 218 223 228 228 232 234 235 236 247 270 284 256 229 232 228 221 201 189 175
208 132 116 119 120 107 140 122 130 207 203 188 170 173 191 197 197 198 203 203 208 219 207 215 235 230 221 222 223 223 216 216 228 235 236 234 237 243 241 245 247 255 241 238 242 232 227 227 223
148 114 129 154 160 112 94 132 238 163 177 185 204 193 196 202 207 205 210 211 206 217 212 224 228 232 233 226 229 228 230 226 222 219 245 233 233 243 245 247 244 246 243 242 247 252 252 255 246
177 129 162 152 162 141 162 243 218 198 172 196 201 202 207 207 207 208 211 215 213 218 213 215 228 227 235 233 231 233 234 235 235 233 237 245 234 237 243 248 249 248 245 244 244 244 253 258 271
224 173 189 199 234 134 195 220 124 151 187 230 235 226 220 222 219 211 207 214 219 216 215 220 230 237 240 234 234 235 238 236 235 238 238 237 242 236 240 245 250 251 251 246 246 250 253 260 269
168 225 194 160 198 199 186 257 162 187 195 229 235 228 224 223 220 225 211 210 214 215 219 224 238 245 241 236 235 234 236 238 238 241 240 239 242 245 244 244 245 250 254 253 252 257 260 267 277
174 182 165 119 58 157 229 253 242 215 208 212 244 239 214 228 224 215 211 217 215 216 218 222 228 244 247 240 231 233 235 236 238 241 244 242 241 244 247 246 247 249 255 253 253 256 258 263 270
267 185 161 68 109 134 222 253 256 253 244 217 225 237 230 219 199 205 219 221 221 223 226 224 227 231 245 250 245 237 238 239 245 244 246 249 245 247 249 250 251 252 256 264 260 264 269 271 274
252 187 144 135 139 273 324 277 231 238 228 231 231 236 230 217 203 205 219 235 235 234 236 233 227 223 231 246 255 239 233 237 238 240 243 248 248 243 247 251 253 257 260 263 270 270 274 276 278
151 31 108 122 149 196 174 267 243 206 200 206 218 216 219 221 209 208 221 240 240 239 242 242 241 230 222 231 248 255 242 238 243 243 246 250 251 247 246 250 251 253 258 264 271 271 274 277 280
151 105 112 139 118 65 201 70 252 52 207 215 212 223 219 208 219 232 234 241 244 238 241 246 244 239 229 223 237 249 255 240 238 241 246 247 250 253 250 246 247 251 255 262 263 273 279 280 286
137 100 78 101 97 335 212 166 273 193 210 142 155 161 179 203 202 215 226 221 229 226 229 234 236 233 229 225 218 231 242 245 241 241 241 251 252 256 256 245 244 251 254 263 268 274 277 280 284
173 154 121 103 93 214 336 186 239 219 97 160 157 155 168 182 186 184 182 189 189 181 178 193 197 206 214 219 211 217 222 242 243 228 237 244 254 263 258 253 248 252 259 266 275 278 279 282 284
210 188 151 179 182 209 356 232 249 145 117 123 139 155 172 164 179 187 183 176 173 173 169 172 186 197 213 207 206 215 216 219 225 231 232 240 247 250 254 255 255 255 259 269 262 274 277 278 280
201 208 109 104 2 78 208 267 276 130 151 159 144 162 171 181 185 184 173 177 176 181 181 185 201 206 210 211 212 216 213 209 217 230 228 231 238 247 250 253 253 257 265 264 272 273 277 279 284
158 164 83 336 129 226 252 242 235 210 206 187 178 181 169 187 186 179 179 184 188 186 185 190 195 205 207 202 194 183 180 184 198 208 217 224 228 232 239 249 256 259 263 268 276 282 286 289 294
160 197 205 153 155 172 194 258 236 181 194 173 183 189 179 187 188 188 187 186 189 184 183 183 179 178 177 179 169 161 163 168 176 188 202 210 218 224 232 238 253 270 281 287 291 295 299 302 302
356 222 171 146 229 207 143 267 356 49 72 160 174 173 188 189 189 190 184 181 181 175 167 169 167 163 157 155 150 148 144 143 147 149 151 163 180 221 265 273 281 288 295 299 302 304 305 305 306
Wind_Speed_850mb
1 5 10 10 3 6 7 6 14 13 13 14 22 21 19 35 12 13 36 28 32 34 31 25 21 21 22 25 29 23 16 22 28 29 29 30 30 35 28 26 29 30 29 27 27 27 30 29 28
4 2 6 12 5 9 7 17 10 11 33 21 15 4 19 18 18 41 37 33 34 34 29 26 24 22 22 23 25 24 20 26 25 29 31 30 34 35 26 26 32 30 28 25 25 24 22 22 22
5 4 5 5 8 9 10 15 16 30 24 16 11 11 14 13 30 33 28 40 33 30 29 28 25 23 23 23 23 22 24 25 23 29 31 32 31 28 25 27 28 28 27 27 25 23 21 19 20
5 1 9 6 17 5 14 13 41 24 10 3 11 20 17 25 22 19 43 41 33 31 29 27 25 23 23 23 22 23 27 27 21 25 28 29 29 26 23 25 26 25 25 24 24 23 22 23 24
11 8 8 11 24 12 8 9 40 16 20 12 7 15 20 21 24 28 45 39 35 31 28 28 25 24 22 21 21 22 25 27 18 18 23 26 27 25 22 21 22 23 22 22 23 24 25 26 29
9 12 7 13 21 17 6 10 25 21 20 20 2 25 16 16 29 43 44 38 33 31 31 29 26 23 22 21 20 20 22 25 18 16 19 20 23 22 19 19 18 18 19 19 21 22 25 27 29
5 6 14 17 10 11 10 11 12 17 14 14 2 10 23 27 31 41 44 36 33 27 31 32 28 26 23 21 19 19 19 21 18 15 15 15 17 18 17 13 13 15 14 16 18 21 22 24 24
8 6 17 16 11 9 18 20 16 13 13 19 10 5 22 36 37 40 44 37 33 26 26 31 29 26 22 20 19 17 16 17 16 13 11 10 11 13 13 11 8 11 12 14 16 18 20 19 18
5 5 16 17 9 13 36 13 5 11 17 10 8 21 30 39 42 42 45 40 36 30 26 30 30 28 25 21 19 18 16 15 15 12 9 5 7 7 8 6 4 7 8 10 12 14 14 12 12
6 3 14 12 1 17 31 26 20 7 17 13 14 26 30 31 42 45 49 46 44 39 32 30 33 30 28 27 23 20 17 15 13 11 10 8 4 3 7 3 1 3 6 8 9 9 9 7 10
10 7 4 15 19 36 30 15 27 15 13 27 35 33 33 36 41 43 44 44 46 39 38 36 36 36 32 29 27 24 21 18 16 14 14 13 13 6 2 3 3 4 6 7 7 6 3 6 4
5 11 18 6 11 21 27 19 9 19 11 16 21 29 35 38 39 40 39 40 40 39 40 40 39 40 36 33 27 27 24 23 20 17 16 16 13 9 6 2 3 6 7 8 8 5 2 3 3
6 7 9 11 14 13 18 15 6 22 17 17 23 29 28 33 35 35 35 38 41 47 44 45 43 46 44 42 35 32 27 25 23 22 21 18 16 11 10 7 4 5 8 7 8 6 6 5 4
7 13 16 11 11 8 7 9 3 20 28 19 22 32 26 28 34 34 35 38 41 36 46 51 47 38 46 47 43 39 35 31 26 27 25 23 21 18 16 14 11 8 9 10 10 8 8 6 6
16 9 8 8 10 5 1 6 13 16 23 21 21 23 27 30 31 35 37 38 40 41 42 44 41 39 41 45 46 44 42 39 33 29 29 28 29 26 23 21 19 15 12 12 12 12 11 10 9
14 11 8 8 12 2 8 7 26 28 22 19 18 18 31 34 39 36 35 36 36 39 40 44 45 47 47 40 43 44 44 42 42 39 35 33 33 33 30 28 25 24 20 17 16 13 13 14 16
11 10 13 4 9 9 9 6 10 12 12 17 26 28 26 30 32 39 41 38 39 40 40 43 47 47 44 40 41 42 44 44 41 39 40 35 31 34 36 33 31 31 30 27 25 22 21 22 26
15 14 16 12 13 6 8 15 6 11 15 18 20 27 32 34 33 33 38 42 40 37 39 40 46 47 42 42 44 43 45 45 42 42 38 39 38 33 32 38 37 39 37 35 34 33 33 33 37
17 18 11 11 3 7 13 14 18 26 25 25 26 28 29 36 26 27 29 35 45 45 46 46 48 50 48 48 51 52 52 51 49 48 45 41 38 39 40 39 39 43 44 40 40 42 43 45 46
8 22 11 11 10 4 8 20 17 21 24 33 33 30 30 29 29 37 33 35 35 38 45 48 51 52 55 54 48 51 52 52 50 49 50 49 44 43 44 43 43 45 46 40 41 45 47 49 51
6 8 10 8 9 4 5 13 15 19 46 45 45 45 37 33 39 32 29 34 36 40 44 49 55 55 52 55 53 44 46 48 50 53 53 53 47 45 46 45 43 44 48 44 51 44 47 52 55
5 4 18 19 13 7 7 9 8 14 14 15 36 44 42 26 33 34 33 38 38 39 45 46 52 61 60 54 55 54 51 54 54 48 47 48 47 45 46 45 46 45 46 48 47 48 45 48 52
5 12 12 6 4 3 6 2 11 6 10 15 28 35 29 32 32 33 32 35 30 30 35 37 38 38 46 60 58 55 49 45 42 38 37 37 39 38 40 42 42 45 46 44 45 40 51 49 54
18 15 12 4 7 2 13 12 9 9 11 3 20 26 24 22 26 26 21 18 17 16 17 20 21 25 33 42 56 51 43 42 34 30 32 32 30 30 29 30 35 36 40 38 41 39 47 44 45
8 14 4 2 1 10 13 7 18 5 2 8 21 26 22 22 20 18 17 16 13 12 11 10 11 14 21 29 40 51 46 30 28 29 27 30 29 28 23 24 25 29 32 36 38 43 40 43 49
12 11 10 13 9 6 8 12 12 4 16 28 30 30 24 27 27 24 20 16 15 15 14 11 8 7 10 19 31 40 43 41 24 25 32 30 29 27 26 25 31 32 35 38 39 42 44 46 44
10 9 6 13 5 7 10 12 11 9 8 12 22 26 26 24 26 22 19 18 16 15 13 12 10 10 12 15 20 27 30 33 21 18 21 26 31 29 32 30 31 32 34 36 37 39 38 40 41
4 9 8 3 8 6 10 8 10 13 18 16 20 27 31 28 23 20 19 16 16 14 14 13 12 11 9 9 11 13 16 19 22 20 20 21 22 24 25 26 27 28 27 26 28 30 34 38 41
4 6 6 8 9 10 3 11 5 2 16 22 28 35 37 30 26 24 22 20 17 15 13 13 13 11 10 9 10 12 15 17 17 16 16 15 15 12 11 12 14 17 20 26 29 33 37 40 42
4 7 10 8 9 3 8 11 1 5 6 36 40 40 32 30 28 26 24 22 21 18 16 13 14 15 17 18 18 18 18 17 16 15 12 9 6 5 8 10 14 17 20 24 27 30 33 37 42
Wind_Direction_850mb
130 35 28 326 276 221 125 107 103 69 100 63 74 40 76 54 28 113 135 153 167 161 154 144 129 119 115 112 112 103 88 81 91 88 92 88 86 85 89 79 90 93 96 101 103 108 109 104 100
250 111 7 295 243 231 126 114 129 131 100 95 93 130 81 74 75 130 131 155 160 155 153 143 128 118 115 114 116 118 94 87 81 86 84 86 89 94 87 78 85 92 96 102 104 108 110 107 107
209 141 284 211 246 290 131 137 127 94 116 140 108 39 38 87 116 135 149 152 160 154 156 144 131 124 120 115 114 116 103 93 91 84 77 77 82 87 87 85 87 84 87 92 99 104 107 106 106
119 278 277 284 257 40 67 159 111 115 87 18 99 91 89 95 120 170 145 150 151 142 151 146 135 127 122 119 119 114 115 107 98 79 75 76 78 81 81 80 84 86 87 91 94 98 98 99 104
208 237 233 223 265 84 54 112 126 148 139 160 234 120 104 131 157 153 148 151 152 166 158 154 141 133 127 123 120 112 115 117 116 83 76 70 73 74 79 76 91 85 86 92 98 100 101 102 105
249 252 206 231 244 87 79 75 139 172 146 106 175 113 104 154 146 152 151 154 155 176 164 161 150 141 136 130 124 118 118 121 124 94 82 73 71 70 73 76 81 77 80 90 97 100 103 106 108
267 258 241 230 172 114 132 166 183 172 125 157 283 105 133 140 158 157 151 157 157 187 174 170 162 155 149 144 137 131 128 132 128 114 97 82 74 74 71 83 79 77 89 91 96 100 103 109 108
257 245 257 250 146 163 131 171 197 177 116 118 163 138 157 159 160 157 155 165 167 188 184 179 173 168 165 159 152 147 141 140 145 129 117 98 79 76 74 85 82 96 93 92 97 100 106 106 105
239 291 226 253 168 134 145 140 150 91 103 110 136 92 144 164 155 157 161 170 176 183 203 187 186 181 179 176 174 169 165 160 162 153 142 113 113 74 68 68 70 86 104 105 104 101 102 101 102
211 259 229 223 290 132 163 151 153 137 133 148 151 126 156 169 162 166 169 177 182 185 203 216 191 185 192 190 189 189 186 183 185 180 168 133 122 81 59 12 227 134 127 135 126 114 106 105 101
206 248 275 54 79 140 162 191 156 195 177 190 180 158 174 168 170 177 179 187 188 196 195 217 199 195 195 207 193 204 202 204 209 200 195 173 206 223 300 304 224 196 173 167 158 150 145 95 124
272 252 348 83 110 144 154 139 148 220 129 99 161 186 174 173 180 184 185 191 195 200 197 218 222 200 204 208 211 216 208 216 221 225 214 207 228 221 270 306 225 193 210 182 191 205 125 139 126
222 102 41 106 131 118 149 154 197 197 160 153 144 170 181 183 191 192 199 199 207 204 202 219 231 214 210 212 215 210 218 223 228 228 232 234 235 236 247 270 284 256 229 232 228 221 201 189 175
208 132 116 119 120 107 140 122 130 207 203 188 170 173 191 197 197 198 203 203 208 219 207 215 235 230 221 222 223 223 216 216 228 235 236 234 237 243 241 245 247 255 241 238 242 232 227 227 223
148 114 129 154 160 112 94 132 238 163 177 185 204 193 196 202 207 205 210 211 206 217 212 224 228 232 233 226 229 228 230 226 222 219 245 233 233 243 245 247 244 246 243 242 247 252 252 255 246
177 129 162 152 162 141 162 243 218 198 172 196 201 202 207 207 207 208 211 215 213 218 213 215 228 227 235 233 231 233 234 235 235 233 237 245 234 237 243 248 249 248 245 244 244 244 253 258 271
224 173 189 199 234 134 195 220 124 151 187 230 235 226 220 222 219 211 207 214 219 216 215 220 230 237 240 234 234 235 238 236 235 238 238 237 242 236 240 245 250 251 251 246 246 250 253 260 269
168 225 194 160 198 199 186 257 162 187 195 229 235 228 224 223 220 225 211 210 214 215 219 224 238 245 241 236 235 234 236 238 238 241 240 239 242 245 244 244 245 250 254 253 252 257 260 267 277
174 182 165 119 58 157 229 253 242 215 208 212 244 239 214 228 224 215 211 217 215 216 218 222 228 244 247 240 231 233 235 236 238 241 244 242 241 244 247 246 247 249 255 253 253 256 258 263 270
267 185 161 68 109 134 222 253 256 253 244 217 225 237 230 219 199 205 219 221 221 223 226 224 227 231 245 250 245 237 238 239 245 244 246 249 245 247 249 250 251 252 256 264 260 264 269 271 274
252 187 144 135 139 273 324 277 231 238 228 231 231 236 230 217 203 205 219 235 235 234 236 233 227 223 231 246 255 239 233 237 238 240 243 248 248 243 247 251 253 257 260 263 270 270 274 276 278
151 31 108 122 149 196 174 267 243 206 200 206 218 216 219 221 209 208 221 240 240 239 242 242 241 230 222 231 248 255 242 238 243 243 246 250 251 247 246 250 251 253 258 264 271 271 274 277 280
151 105 112 139 118 65 201 70 252 52 207 215 212 223 219 208 219 232 234 241 244 238 241 246 244 239 229 223 237 249 255 240 238 241 246 247 250 253 250 246 247 251 255 262 263 273 279 280 286
137 100 78 101 97 335 212 166 273 193 210 142 155 161 179 203 202 215 226 221 229 226 229 234 236 233 229 225 218 231 242 245 241 241 241 251 252 256 256 245 244 251 254 263 268 274 277 280 284
173 154 121 103 93 214 336 186 239 219 97 160 157 155 168 182 186 184 182 189 189 181 178 193 197 206 214 219 211 217 222 242 243 228 237 244 254 263 258 253 248 252 259 266 275 278 279 282 284
210 188 151 179 182 209 356 232 249 145 117 123 139 155 172 164 179 187 183 176 173 173 169 172 186 197 213 207 206 215 216 219 225 231 232 240 247 250 254 255 255 255 259 269 262 274 277 278 280
201 208 109 104 2 78 208 267 276 130 151 159 144 162 171 181 185 184 173 177 176 181 181 185 201 206 210 211 212 216 213 209 217 230 228 231 238 247 250 253 253 257 265 264 272 273 277 279 284
158 164 83 336 129 226 252 242 235 210 206 187 178 181 169 187 186 179 179 184 188 186 185 190 195 205 207 202 194 183 180 184 198 208 217 224 228 232 239 249 256 259 263 268 276 282 286 289 294
160 197 205 153 155 172 194 258 236 181 194 173 183 189 179 187 188 188 187 186 189 184 183 183 179 178 177 179 169 161 163 168 176 188 202 210 218 224 232 238 253 270 281 287 291 295 299 302 302
356 222 171 146 229 207 143 267 356 49 72 160 174 173 188 189 189 190 184 181 181 175 167 169 167 163 157 155 150 148 144 143 147 149 151 163 180 221 265 273 281 288 295 299 302 304 305 305 306